Find OneWeb SL0291

NORAD ID: 49081 Int'l Des: 2021-075 Owner: ONEWEBN Country: UK Constellation: oneweb operational
LEOCIRCULARPOLARONEWEB_TYPE

实时位置

正在加载3D地球...

关于 OneWeb SL0291

正在加载描述...

即将过境

Passes for default location (London). Set your location on the main map for personalized predictions.

高度历史

Loading altitude history...

两行轨道根数

1 49081U 21075G 26124.12030185 .00000087 00000-0 19109-3 0 9990
2 49081 87.9184 14.6178 0001488 87.8702 272.2600 13.17648911227800
Epoch: May 4, 2026 • Age: 8 hours

当前状态

高度 1199.5 km
速度 7.26 km/s
星下点 43.82°N, 1.75°W
发射日期 Aug 21, 2021
运行时间 4.7 years
类型 internet

技术详情

分类 Payload
质量 148.00 kg
干质量 140.00 kg
总质量 148.00 kg
长度 1.30 m
直径 1.00 m
跨度 5.00 m
形状 Trapezoid+2 pan
制造商 ONEWUS
平台类型 ARROW
阶段状态 In Orbit
所有者/国家 ONEWEBN/UK

Most Searched